Theta_e
306 305 303 302 300 298 298 298 298 299 299 300 300 300 300 301 301 301 301 301 302 303
298 298 296 296 296 295 295 296 295 295 295 296 296 296 297 296 296 296 296 296 297 298
295 295 294 294 293 293 293 293 293 293 293 293 293 293 293 293 294 292 292 294 293 294
293 292 292 292 291 291 291 291 291 291 291 291 291 291 291 290 290 289 289 290 290 291
291 290 290 289 289 289 289 289 289 289 289 289 289 289 289 287 287 287 287 288 289 288
289 288 288 288 288 288 287 287 287 287 287 287 287 287 287 287 287 287 287 287 286 287
287 287 287 286 286 286 286 286 285 285 285 285 285 286 285 285 285 285 285 286 285 285
286 286 285 284 284 284 284 284 284 283 283 283 284 285 285 284 284 283 283 283 283 285
284 283 283 283 283 283 283 283 282 282 282 282 283 287 288 287 285 284 282 282 284 285
283 283 283 282 282 282 282 281 281 281 281 281 281 287 287 286 285 284 282 283 283 284
282 282 282 281 280 281 281 280 280 280 280 280 281 287 286 286 284 284 284 284 284 284
281 280 279 277 278 279 278 277 276 279 276 278 279 286 287 286 284 284 283 284 284 284
280 278 276 277 276 277 275 279 279 279 276 276 277 285 287 286 284 283 283 284 284 284
279 276 276 275 276 273 271 273 268 273 275 275 277 279 286 287 284 283 283 283 283 283
Wind_Speed
12 6 7 8 6 5 5 4 5 6 6 7 6 6 6 4 4 6 5 6 6 4
9 9 8 8 7 5 5 5 6 6 6 6 6 6 6 4 5 5 5 5 5 4
9 9 8 7 8 7 6 6 6 6 6 6 6 6 6 5 5 6 4 4 6 5
9 8 7 8 6 6 6 6 6 6 6 6 6 6 5 5 5 6 6 5 5 6
8 7 8 7 7 6 6 5 6 6 6 5 5 5 5 5 5 5 7 7 6 7
7 7 7 7 6 6 6 6 5 5 5 5 5 5 5 5 5 5 6 6 6 8
7 6 6 6 6 5 4 4 5 5 5 5 5 5 6 5 5 5 6 6 6 7
7 6 6 6 5 4 5 5 5 5 5 5 5 4 6 5 5 5 7 7 6 7
7 6 6 6 6 5 5 5 5 6 6 6 4 11 11 11 9 8 6 7 10 10
6 6 6 6 5 4 3 3 4 4 5 5 5 10 12 14 8 10 8 9 10 10
6 6 5 5 2 1 1 2 3 4 4 4 4 10 12 14 8 8 10 10 10 11
6 6 4 2 1 3 2 1 2 3 4 3 4 9 12 12 6 6 10 9 10 9
6 5 4 2 3 2 1 3 3 4 4 5 7 11 10 11 5 7 7 7 8 10
5 4 2 3 1 1 2 2 3 4 4 6 6 8 11 13 5 6 6 6 7 5
Wind_Direction
82 83 74 77 79 69 66 59 38 46 44 38 34 30 23 26 12 11 4 348 334 314
86 90 94 82 80 79 67 64 50 47 50 40 36 31 26 31 18 14 360 343 341 329
91 88 84 82 82 76 69 61 56 48 48 39 35 28 27 20 13 0 350 344 340 337
96 93 88 86 76 78 72 55 52 43 43 36 26 17 23 13 5 355 337 337 342 325
96 91 88 80 73 61 68 56 54 40 40 30 19 8 18 7 351 342 332 327 325 322
95 92 84 76 66 57 54 50 46 46 37 19 5 358 8 359 337 329 322 317 315 309
99 98 91 85 71 66 61 64 40 32 19 11 355 351 348 338 331 321 320 311 308 308
107 99 95 88 81 63 48 45 34 16 4 355 349 345 339 332 316 313 314 311 308 315
121 116 102 85 68 54 36 29 21 4 345 343 340 336 342 342 330 324 305 305 324 323
121 106 86 77 70 56 27 9 343 325 319 318 310 334 345 345 336 330 326 325 330 329
112 101 94 86 83 36 232 319 317 306 306 307 300 339 345 344 339 331 328 330 327 319
126 120 114 94 257 251 223 257 251 246 258 276 268 321 325 339 327 323 327 322 315 304
130 125 124 202 244 226 247 259 277 293 266 281 293 300 318 334 320 316 317 313 304 315
113 120 181 211 238 283 301 299 307 311 312 298 284 301 297 321 319 306 304 309 310 311